User: anonymous   Login
Location: Vancouver
(49.2500°N, 123.1330°W)
Time: 17:34:01
(UTC-07:00)
Language:

YAOGAN 6 - Orbit

View from above orbital plane
View from above orbital plane
View from above satellite
View from above satellite

Ground track
Ground track

The orbit data is extracted from the following two-line orbital elements,

1 34839U 09021A   17085.95108889 +.00000955 +00000-0 +40106-4 0  9992
2 34839 097.1550 140.1437 0027260 251.7301 108.0971 15.25500520440023
Epoch (UTC): 26 March 2017 22:49:34
Eccentricity: 0.0027260
inclination: 97.1550°
perigee height: 470 km
apogee height: 508 km
right ascension of ascending node: 140.1437°
argument of perigee: 251.7301°
revolutions per day: 15.25500520
mean anomaly at epoch: 108.0971°
orbit number at epoch: 44002

The dashed part of the orbit path shows where the satellite is in the earth's shadow,  

DLR